Date String (YYYY-MM-DD hh:mm:ss) UTC,Instrument flags,Ambient pressure (hPa),Sample flow (lpm),Bypass flow (lpm),Sample temperature (°C),Ambient temperature (°C),ASC tube jacket temperature (°C),LED temperature (°C),Box temperature (°C),Sample RH (%),Span deviation,Mass concentration (μg/m³),Mass concentration (μg/m³),Mass concentration (μg/m³)
DateTimeUTC,F1_M11,P_M11,Q1_M11,Q2_M11,T1_M11,T2_M11,T3_M11,T4_M11,T5_M11,U1_M11,ZSPAN_M11,X0_M11,X2_M11,X1_M11
2021-12-25 03:00:00,,0811.6,5.00,0.00,21.8,21.1,00.0,31.0,23.4,13.5,0000.0,0000.66,0000.42,0000.37
2021-12-25 03:01:00,,0811.6,5.00,0.00,21.8,21.1,00.0,31.0,23.4,13.8,0000.0,0000.66,0000.41,0000.37
2021-12-25 03:02:00,,0811.6,4.99,0.00,21.8,21.0,00.0,31.0,23.3,13.7,0000.0,0000.65,0000.40,0000.35
2021-12-25 03:03:00,,0811.6,5.01,0.00,21.7,21.0,00.0,31.0,23.3,13.9,0000.0,0000.68,0000.41,0000.35
2021-12-25 03:04:00,,0811.6,5.00,0.00,21.7,20.9,00.0,31.0,23.3,13.7,0000.0,0000.62,0000.38,0000.33
2021-12-25 03:05:00,,0811.6,4.99,0.00,21.7,20.9,00.0,30.9,23.2,13.9,0000.0,0000.61,0000.37,0000.32
2021-12-25 03:06:00,,0811.6,5.00,0.00,21.6,20.9,00.0,30.9,23.2,14.1,0000.0,0000.67,0000.39,0000.33
2021-12-25 03:07:00,,0811.6,5.00,0.00,21.7,20.9,00.0,30.9,23.2,14.2,0000.0,0000.67,0000.40,0000.34
2021-12-25 03:08:00,,0811.7,5.01,0.00,21.6,20.9,00.0,30.9,23.3,14.2,0000.0,0001.69,0000.40,0000.35
2021-12-25 03:09:00,,0811.7,4.99,0.00,21.6,20.9,00.0,30.9,23.3,14.2,0000.0,0001.84,0000.41,0000.36
2021-12-25 03:10:00,,0811.7,5.00,0.00,21.6,20.9,00.0,30.9,23.2,14.3,0000.0,0001.88,0000.43,0000.37
2021-12-25 03:11:00,,0811.7,5.00,0.00,21.6,20.9,00.0,30.8,23.2,14.3,0000.0,0001.79,0000.42,0000.37
2021-12-25 03:12:00,,0811.7,5.01,0.00,21.6,20.9,00.0,30.8,23.2,14.4,0000.0,0001.78,0000.42,0000.37
2021-12-25 03:13:00,,0811.7,4.99,0.00,21.6,21.0,00.0,30.8,23.3,14.4,0000.0,0001.78,0000.42,0000.37
2021-12-25 03:14:00,,0811.7,5.00,0.00,21.7,21.0,00.0,30.8,23.3,14.4,0000.0,0001.74,0000.40,0000.37
2021-12-25 03:15:00,,0811.7,5.00,0.00,21.7,21.0,00.0,30.8,23.3,14.3,0000.0,0001.74,0000.40,0000.37
2021-12-25 03:16:00,,0811.7,4.99,0.00,21.7,21.1,00.0,30.8,23.4,14.3,0000.0,0001.75,0000.41,0000.37
2021-12-25 03:17:00,,0811.7,5.00,0.00,21.7,21.1,00.0,30.8,23.4,14.3,0000.0,0001.69,0000.38,0000.36
2021-12-25 03:18:00,,0811.7,5.00,0.00,21.7,21.1,00.0,30.8,23.4,14.3,0000.0,0001.68,0000.37,0000.34
2021-12-25 03:19:00,,0811.8,5.01,0.00,21.8,21.1,00.0,30.8,23.4,14.3,0000.0,0000.81,0000.36,0000.33
2021-12-25 03:20:00,,0811.7,4.99,0.00,21.8,21.1,00.0,30.8,23.5,14.2,0000.0,0000.45,0000.35,0000.32
2021-12-25 03:21:00,,0811.8,5.00,0.00,21.8,21.1,00.0,30.8,23.5,14.2,0000.0,0000.41,0000.33,0000.30
2021-12-25 03:22:00,,0811.7,5.00,0.00,21.8,21.1,00.0,30.8,23.5,14.2,0000.0,0000.42,0000.33,0000.30
2021-12-25 03:23:00,,0811.7,5.00,0.00,21.8,21.2,00.0,30.8,23.5,14.2,0000.0,0000.44,0000.34,0000.30
2021-12-25 03:24:00,,0811.7,5.00,0.00,21.8,21.2,00.0,30.8,23.6,14.1,0000.0,0000.47,0000.35,0000.30
2021-12-25 03:25:00,,0811.9,4.98,0.00,21.9,21.2,00.0,30.8,23.6,14.1,0000.0,0000.50,0000.36,0000.31
2021-12-25 03:26:00,,0811.8,5.02,0.00,21.9,21.2,00.0,30.8,23.6,14.1,0000.0,0000.63,0000.37,0000.31
2021-12-25 03:27:00,,0811.8,4.99,0.00,21.9,21.2,00.0,30.9,23.6,14.1,0000.0,0000.69,0000.38,0000.32
2021-12-25 03:28:00,,0811.8,4.99,0.00,21.9,21.2,00.0,30.9,23.6,14.1,0000.0,0000.69,0000.39,0000.32
2021-12-25 03:29:00,,0811.9,5.01,0.00,21.9,21.2,00.0,30.9,23.6,14.1,0000.0,0000.69,0000.39,0000.33
2021-12-25 03:30:00,,0811.8,4.99,0.00,21.9,21.2,00.0,30.9,23.5,14.1,0000.0,0000.68,0000.39,0000.33
2021-12-25 03:31:00,,0811.8,5.01,0.00,21.9,21.2,00.0,30.9,23.6,14.1,0000.0,0000.67,0000.39,0000.33
2021-12-25 03:32:00,,0811.8,4.99,0.00,21.9,21.2,00.0,30.9,23.6,14.0,0000.0,0000.68,0000.40,0000.34
2021-12-25 03:33:00,,0811.8,5.00,0.00,21.9,21.2,00.0,30.9,23.6,14.0,0000.0,0000.65,0000.38,0000.34
2021-12-25 03:34:00,,0811.8,5.00,0.00,21.9,21.2,00.0,30.9,23.7,14.1,0000.0,0000.63,0000.37,0000.33
2021-12-25 03:35:00,,0811.9,5.00,0.00,21.9,21.2,00.0,30.9,23.7,14.1,0000.0,0000.61,0000.37,0000.33
2021-12-25 03:36:00,,0811.8,4.99,0.00,21.9,21.2,00.0,30.9,23.6,14.1,0000.0,0000.59,0000.36,0000.33
2021-12-25 03:37:00,,0811.8,4.99,0.00,21.9,21.2,00.0,30.9,23.6,14.1,0000.0,0000.49,0000.35,0000.32
2021-12-25 03:38:00,,0811.9,5.01,0.00,21.9,21.2,00.0,30.9,23.6,14.1,0000.0,0000.41,0000.34,0000.31
2021-12-25 03:39:00,,0811.9,5.01,0.00,21.9,21.1,00.0,30.9,23.6,14.1,0000.0,0000.40,0000.34,0000.31
2021-12-25 03:40:00,,0812.0,4.99,0.00,21.9,21.5,00.0,31.0,23.7,14.0,0000.0,0000.40,0000.33,0000.31
2021-12-25 03:41:00,,0812.0,4.99,0.00,22.0,22.2,00.0,31.0,24.0,14.0,0000.0,0000.41,0000.33,0000.31
2021-12-25 03:42:00,,0812.0,4.99,0.00,22.2,23.0,00.0,31.0,24.2,13.9,0000.0,0000.42,0000.34,0000.31
2021-12-25 03:43:00,,0812.0,5.01,0.00,22.3,22.9,00.0,31.1,24.3,13.8,0000.0,0000.41,0000.33,0000.31
2021-12-25 03:44:00,,0812.0,5.00,0.00,22.3,22.7,00.0,31.1,24.3,13.7,0000.0,0000.43,0000.35,0000.33
2021-12-25 03:45:00,,0812.0,4.98,0.00,22.3,22.5,00.0,31.1,24.2,13.7,0000.0,0000.47,0000.37,0000.34
2021-12-25 03:46:00,,0812.0,5.00,0.00,22.3,22.4,00.0,31.2,24.2,13.7,0000.0,0000.52,0000.41,0000.35
2021-12-25 03:47:00,,0812.1,5.00,0.00,22.3,22.2,00.0,31.2,24.2,13.7,0000.0,0000.52,0000.41,0000.36
2021-12-25 03:48:00,,0812.1,4.99,0.00,22.3,22.1,00.0,31.2,24.2,13.7,0000.0,0000.51,0000.41,0000.36
2021-12-25 03:49:00,,0812.1,5.01,0.00,22.3,22.0,00.0,31.2,24.1,13.7,0000.0,0000.55,0000.42,0000.37
2021-12-25 03:50:00,,0812.1,5.01,0.00,22.3,21.9,00.0,31.2,24.1,13.7,0000.0,0001.95,0000.43,0000.37
2021-12-25 03:51:00,,0812.2,4.99,0.00,22.3,21.9,00.0,31.2,24.1,13.7,0000.0,0001.98,0000.45,0000.38
2021-12-25 03:52:00,,0812.2,5.01,0.00,22.3,21.9,00.0,31.2,24.2,13.7,0000.0,0002.03,0000.48,0000.39
2021-12-25 03:53:00,,0812.1,4.99,0.00,22.4,21.9,00.0,31.2,24.2,13.7,0000.0,0002.02,0000.48,0000.39
2021-12-25 03:54:00,,0812.2,4.99,0.00,22.4,21.8,00.0,31.3,24.2,13.7,0000.0,0002.03,0000.49,0000.40
2021-12-25 03:55:00,,0812.1,4.99,0.00,22.4,21.8,00.0,31.3,24.2,13.7,0000.0,0002.03,0000.49,0000.40
2021-12-25 03:56:00,,0812.1,5.01,0.00,22.3,21.8,00.0,31.3,24.1,13.7,0000.0,0002.01,0000.47,0000.39
2021-12-25 03:57:00,,0812.2,4.99,0.00,22.3,21.8,00.0,31.3,24.1,13.7,0000.0,0001.97,0000.45,0000.39
2021-12-25 03:58:00,,0812.1,5.00,0.00,22.3,21.8,00.0,31.3,24.1,13.8,0000.0,0001.98,0000.45,0000.39
2021-12-25 03:59:00,,0812.2,4.99,0.00,22.3,21.7,00.0,31.3,24.1,13.9,0000.0,0002.01,0000.46,0000.39
